EJU3PX EDDB-ESSA

Flight info

Callsign EJU3PX
Flight time 1h 21m
Altitude 39000
Route GERGA3Q GERGA M725 RENKI Y89 USEDU DCT BANUB DCT POKEN DCT VIBAR Z227 NILUG
Aircraft A20N/M-SDE2E3FGHIRWXY/LB1

Departure

Time 2026-05-07 07:45
Airport Berlin Brandenburg Airport (EDDB)

Arrival

Time 2026-05-07 09:06
Airport Stockholm-Arlanda Airport (ESSA)
Time Latitude Longitude Altitude Speed Heading
2026-05-07 07:15 52.36151 13.51418 158 ft 0 kts 339°
2026-05-07 07:32 52.36148 13.51420 158 ft 3 kts 339°
2026-05-07 07:32 52.36123 13.51435 158 ft 4 kts 339°
2026-05-07 07:33 52.36101 13.51449 158 ft 2 kts 339°
2026-05-07 07:33 52.36081 13.51467 158 ft 4 kts 299°
2026-05-07 07:33 52.36079 13.51502 158 ft 3 kts 249°
2026-05-07 07:33 52.36085 13.51531 158 ft 0 kts 249°
2026-05-07 07:36 52.36080 13.51507 158 ft 6 kts 249°
2026-05-07 07:36 52.36056 13.51400 158 ft 14 kts 250°
2026-05-07 07:36 52.36016 13.51234 158 ft 16 kts 249°
2026-05-07 07:37 52.35978 13.51066 158 ft 15 kts 249°
2026-05-07 07:37 52.35939 13.50913 158 ft 15 kts 247°
2026-05-07 07:37 52.35900 13.50749 156 ft 16 kts 249°
2026-05-07 07:37 52.35823 13.50636 152 ft 16 kts 182°
2026-05-07 07:38 52.35749 13.50520 151 ft 16 kts 249°
2026-05-07 07:38 52.35710 13.50353 151 ft 18 kts 248°
2026-05-07 07:38 52.35652 13.50108 151 ft 26 kts 248°
2026-05-07 07:38 52.35588 13.49837 151 ft 25 kts 250°
2026-05-07 07:39 52.35526 13.49572 151 ft 25 kts 249°
2026-05-07 07:39 52.35464 13.49316 151 ft 24 kts 246°
2026-05-07 07:39 52.35404 13.49067 151 ft 23 kts 248°
2026-05-07 07:39 52.35347 13.48826 151 ft 22 kts 249°
2026-05-07 07:40 52.35293 13.48593 152 ft 21 kts 245°
2026-05-07 07:40 52.35238 13.48369 152 ft 22 kts 249°
2026-05-07 07:40 52.35165 13.48057 152 ft 35 kts 248°
2026-05-07 07:40 52.35078 13.47683 153 ft 35 kts 248°
2026-05-07 07:41 52.34992 13.47321 154 ft 34 kts 248°
2026-05-07 07:41 52.34910 13.46968 154 ft 33 kts 250°
2026-05-07 07:41 52.34810 13.46711 154 ft 24 kts 177°
2026-05-07 07:41 52.34687 13.46786 159 ft 10 kts 159°
2026-05-07 07:42 52.34683 13.46788 159 ft 0 kts 159°
2026-05-07 07:43 52.34677 13.46791 159 ft 6 kts 159°
2026-05-07 07:43 52.34573 13.46894 163 ft 23 kts 112°
2026-05-07 07:44 52.34582 13.47004 163 ft 0 kts 68°
2026-05-07 07:44 52.34583 13.47008 163 ft 7 kts 68°
2026-05-07 07:44 52.34693 13.47461 159 ft 77 kts 68°
2026-05-07 07:44 52.34973 13.48616 162 ft 140 kts 69°
2026-05-07 07:45 52.35369 13.50216 633 ft 149 kts 66°
2026-05-07 07:45 52.35574 13.51911 1273 ft 159 kts 99°
2026-05-07 07:45 52.34988 13.53523 1934 ft 178 kts 126°
2026-05-07 07:45 52.34065 13.55124 2324 ft 206 kts 131°
2026-05-07 07:46 52.33028 13.56820 3040 ft 214 kts 131°
2026-05-07 07:46 52.31975 13.58577 3850 ft 219 kts 131°
2026-05-07 07:46 52.31018 13.60526 4658 ft 222 kts 113°
2026-05-07 07:46 52.30817 13.62998 5400 ft 225 kts 79°
2026-05-07 07:47 52.31219 13.65490 6212 ft 229 kts 70°
2026-05-07 07:47 52.31740 13.67970 7018 ft 232 kts 69°
2026-05-07 07:47 52.32274 13.70487 7806 ft 237 kts 69°
2026-05-07 07:47 52.32760 13.73084 8595 ft 242 kts 77°
2026-05-07 07:48 52.32892 13.75898 9191 ft 259 kts 89°
2026-05-07 07:48 52.32818 13.78962 9633 ft 278 kts 92°
2026-05-07 07:48 52.32690 13.82172 10314 ft 287 kts 92°
2026-05-07 07:48 52.32556 13.85446 11121 ft 290 kts 93°
2026-05-07 07:49 52.32424 13.88755 11944 ft 293 kts 93°
2026-05-07 07:49 52.32296 13.92100 12787 ft 297 kts 93°
2026-05-07 07:49 52.32167 13.95490 13617 ft 300 kts 94°
2026-05-07 07:49 52.32085 13.98920 14359 ft 305 kts 88°
2026-05-07 07:50 52.32507 14.02336 15038 ft 312 kts 68°
2026-05-07 07:50 52.33732 14.05276 15686 ft 319 kts 43°
2026-05-07 07:50 52.35641 14.07153 16306 ft 326 kts 17°
2026-05-07 07:50 52.37897 14.07582 16973 ft 329 kts 356°
2026-05-07 07:51 52.40183 14.07203 17671 ft 333 kts 352°
2026-05-07 07:51 52.42490 14.06675 18346 ft 337 kts 351°
2026-05-07 07:51 52.44823 14.06137 18947 ft 340 kts 351°
2026-05-07 07:51 52.47181 14.05610 19582 ft 343 kts 351°
2026-05-07 07:52 52.49560 14.05092 20213 ft 346 kts 351°
2026-05-07 07:52 52.51955 14.04577 20840 ft 349 kts 351°
2026-05-07 07:52 52.54375 14.04062 21439 ft 352 kts 351°
2026-05-07 07:52 52.56816 14.03545 22051 ft 355 kts 351°
2026-05-07 07:53 52.59272 14.03025 22618 ft 358 kts 351°
2026-05-07 07:53 52.61750 14.02501 23181 ft 361 kts 351°
2026-05-07 07:53 52.64246 14.01971 23713 ft 363 kts 351°
2026-05-07 07:53 52.66765 14.01436 24135 ft 367 kts 351°
2026-05-07 07:54 52.69307 14.00896 24542 ft 371 kts 351°
2026-05-07 07:54 52.71878 14.00349 24959 ft 374 kts 351°
2026-05-07 07:54 52.74476 13.99796 25362 ft 378 kts 351°
2026-05-07 07:54 52.77057 13.99246 25745 ft 381 kts 351°
2026-05-07 07:55 52.79737 13.98674 26123 ft 385 kts 351°
2026-05-07 07:55 52.82367 13.98114 26509 ft 388 kts 351°
2026-05-07 07:55 52.85058 13.97541 26887 ft 391 kts 351°
2026-05-07 07:55 52.87766 13.96964 27260 ft 394 kts 351°
2026-05-07 07:56 52.90513 13.96530 27619 ft 399 kts 357°
2026-05-07 07:56 52.93338 13.96644 27971 ft 403 kts
2026-05-07 07:56 52.96100 13.96993 28328 ft 405 kts
2026-05-07 07:56 52.98919 13.97450 28667 ft 408 kts
2026-05-07 07:57 53.01756 13.97970 29017 ft 411 kts
2026-05-07 07:57 53.04608 13.98516 29343 ft 414 kts
2026-05-07 07:57 53.07480 13.99072 29673 ft 417 kts
2026-05-07 07:57 53.10371 13.99627 29993 ft 420 kts
2026-05-07 07:58 53.13284 14.00180 30265 ft 422 kts
2026-05-07 07:58 53.16214 14.00730 30536 ft 424 kts
2026-05-07 07:58 53.19153 14.01279 30807 ft 427 kts
2026-05-07 07:58 53.22112 14.01829 31066 ft 429 kts
2026-05-07 07:59 53.25082 14.02381 31327 ft 431 kts
2026-05-07 07:59 53.28070 14.02937 31583 ft 433 kts
2026-05-07 07:59 53.31064 14.03495 31830 ft 434 kts
2026-05-07 07:59 53.34075 14.04058 32072 ft 436 kts
2026-05-07 08:00 53.37101 14.04624 32318 ft 438 kts
2026-05-07 08:00 53.40138 14.05193 32547 ft 440 kts
2026-05-07 08:00 53.42195 14.05580 32708 ft 441 kts
2026-05-07 08:00 53.45251 14.06154 32936 ft 443 kts
2026-05-07 08:01 53.48322 14.06733 33160 ft 444 kts
2026-05-07 08:01 53.51400 14.07314 33392 ft 446 kts
2026-05-07 08:01 53.54447 14.07889 33610 ft 448 kts
2026-05-07 08:01 53.57587 14.08483 33835 ft 449 kts
2026-05-07 08:02 53.60700 14.08805 34033 ft 447 kts 355°
2026-05-07 08:02 53.63790 14.08405 34217 ft 444 kts 346°
2026-05-07 08:02 53.66829 14.07515 34416 ft 443 kts 345°
2026-05-07 08:02 53.69853 14.06479 34610 ft 443 kts 343°
2026-05-07 08:03 53.72829 14.05371 34784 ft 444 kts 343°
2026-05-07 08:03 53.75882 14.04190 34968 ft 445 kts 342°
2026-05-07 08:03 53.78908 14.03007 35132 ft 446 kts 343°
2026-05-07 08:03 53.81936 14.01824 35298 ft 447 kts 343°
2026-05-07 08:04 53.84972 14.00645 35448 ft 448 kts 343°
2026-05-07 08:04 53.87976 13.99486 35612 ft 449 kts 343°
2026-05-07 08:04 53.91091 13.98429 35766 ft 453 kts 349°
2026-05-07 08:04 53.94207 13.98080 35910 ft 458 kts 358°
2026-05-07 08:05 53.97392 13.98614 36061 ft 463 kts
2026-05-07 08:05 54.00511 14.00043 36214 ft 465 kts 15°
2026-05-07 08:05 54.03582 14.01809 36365 ft 467 kts 18°
2026-05-07 08:05 54.06639 14.03737 36504 ft 468 kts 19°
2026-05-07 08:06 54.09682 14.05737 36653 ft 470 kts 19°
2026-05-07 08:06 54.12722 14.07760 36794 ft 470 kts 20°
2026-05-07 08:06 54.15780 14.09792 36931 ft 471 kts 19°
2026-05-07 08:06 54.18840 14.11812 37054 ft 472 kts 19°
2026-05-07 08:07 54.21912 14.13827 37177 ft 473 kts 19°
2026-05-07 08:07 54.24992 14.15840 37317 ft 474 kts 19°
2026-05-07 08:07 54.28078 14.17852 37445 ft 475 kts 19°
2026-05-07 08:07 54.31174 14.19871 37562 ft 476 kts 19°
2026-05-07 08:08 54.34270 14.21892 37681 ft 477 kts 19°
2026-05-07 08:08 54.37377 14.23924 37801 ft 478 kts 19°
2026-05-07 08:08 54.40488 14.25962 37925 ft 479 kts 19°
2026-05-07 08:08 54.43605 14.28009 38041 ft 480 kts 19°
2026-05-07 08:09 54.46718 14.30083 38227 ft 479 kts 20°
2026-05-07 08:09 54.49776 14.32255 38642 ft 473 kts 21°
2026-05-07 08:09 54.52788 14.34479 38930 ft 469 kts 22°
2026-05-07 08:10 54.58760 14.38974 39039 ft 469 kts 22°
2026-05-07 08:10 54.64728 14.43466 39043 ft 468 kts 22°
2026-05-07 08:11 54.70704 14.47947 39041 ft 468 kts 22°
2026-05-07 08:11 54.76683 14.52430 39043 ft 468 kts 22°
2026-05-07 08:12 54.82667 14.56875 39046 ft 468 kts 20°
2026-05-07 08:12 54.88771 14.60783 39048 ft 467 kts 17°
2026-05-07 08:13 54.94914 14.64467 39047 ft 467 kts 17°
2026-05-07 08:13 55.01059 14.68191 39050 ft 468 kts 17°
2026-05-07 08:14 55.07191 14.71975 39047 ft 468 kts 18°
2026-05-07 08:14 55.13328 14.75798 39047 ft 468 kts 18°
2026-05-07 08:15 55.19418 14.79607 39046 ft 468 kts 18°
2026-05-07 08:15 55.25542 14.83448 39051 ft 468 kts 17°
2026-05-07 08:16 55.31674 14.87304 39057 ft 467 kts 17°
2026-05-07 08:16 55.37796 14.91166 39056 ft 467 kts 17°
2026-05-07 08:17 55.43919 14.95042 39055 ft 467 kts 17°
2026-05-07 08:17 55.50039 14.98928 39056 ft 467 kts 17°
2026-05-07 08:18 55.56156 15.02826 39057 ft 468 kts 17°
2026-05-07 08:18 55.62276 15.06739 39057 ft 468 kts 17°
2026-05-07 08:19 55.68394 15.10664 39058 ft 468 kts 17°
2026-05-07 08:19 55.74509 15.14599 39057 ft 468 kts 17°
2026-05-07 08:20 55.80583 15.18521 39057 ft 468 kts 17°
2026-05-07 08:20 55.86697 15.22482 39057 ft 468 kts 17°
2026-05-07 08:21 55.92811 15.26457 39057 ft 468 kts 17°
2026-05-07 08:21 55.98930 15.30448 39055 ft 468 kts 17°
2026-05-07 08:22 56.05045 15.34450 39054 ft 468 kts 17°
2026-05-07 08:22 56.11157 15.38464 39047 ft 468 kts 17°
2026-05-07 08:23 56.17273 15.42493 39050 ft 468 kts 17°
2026-05-07 08:23 56.23391 15.46538 39048 ft 469 kts 17°
2026-05-07 08:24 56.29514 15.50601 39050 ft 469 kts 17°
2026-05-07 08:24 56.35633 15.54674 39050 ft 469 kts 17°
2026-05-07 08:25 56.41757 15.58764 39047 ft 469 kts 17°
2026-05-07 08:25 56.47882 15.62870 39049 ft 470 kts 17°
2026-05-07 08:26 56.57072 15.69057 39047 ft 470 kts 17°
2026-05-07 08:26 56.63199 15.73200 39049 ft 470 kts 17°
2026-05-07 08:27 56.69328 15.77358 39049 ft 470 kts 17°
2026-05-07 08:27 56.75455 15.81529 39048 ft 470 kts 17°
2026-05-07 08:28 56.81587 15.85718 39048 ft 470 kts 17°
2026-05-07 08:28 56.87674 15.89891 39048 ft 471 kts 17°
2026-05-07 08:29 56.93804 15.94109 39048 ft 471 kts 17°
2026-05-07 08:29 56.99928 15.98337 39048 ft 471 kts 17°
2026-05-07 08:30 57.06058 16.02584 39043 ft 471 kts 17°
2026-05-07 08:30 57.12193 16.06850 39052 ft 471 kts 17°
2026-05-07 08:31 57.18324 16.11128 39051 ft 471 kts 17°
2026-05-07 08:31 57.24454 16.15420 39047 ft 471 kts 18°
2026-05-07 08:32 57.30592 16.19734 39047 ft 472 kts 18°
2026-05-07 08:32 57.36724 16.24059 39049 ft 472 kts 18°
2026-05-07 08:33 57.42863 16.28404 39054 ft 472 kts 18°
2026-05-07 08:33 57.48998 16.32763 39055 ft 472 kts 18°
2026-05-07 08:34 57.55139 16.37141 39055 ft 472 kts 18°
2026-05-07 08:34 57.58133 16.39689 39053 ft 476 kts 29°
2026-05-07 08:34 57.60947 16.42935 39058 ft 475 kts 28°
2026-05-07 08:35 57.66616 16.49347 39056 ft 477 kts 29°
2026-05-07 08:35 57.72267 16.55885 39057 ft 478 kts 29°
2026-05-07 08:36 57.77907 16.62474 39060 ft 478 kts 29°
2026-05-07 08:36 57.83549 16.69100 39062 ft 478 kts 29°
2026-05-07 08:37 57.89184 16.75747 39064 ft 479 kts 29°
2026-05-07 08:37 57.94824 16.82427 39062 ft 479 kts 30°
2026-05-07 08:38 58.00455 16.89120 39066 ft 479 kts 29°
2026-05-07 08:38 58.03276 16.92483 38963 ft 482 kts 29°
2026-05-07 08:38 58.06117 16.95874 38358 ft 485 kts 30°
2026-05-07 08:39 58.08948 16.99260 37455 ft 491 kts 29°
2026-05-07 08:39 58.11843 17.02730 36621 ft 495 kts 29°
2026-05-07 08:39 58.14760 17.06234 35875 ft 498 kts 29°
2026-05-07 08:39 58.17692 17.09764 35177 ft 499 kts 29°
2026-05-07 08:40 58.20626 17.13303 34511 ft 501 kts 29°
2026-05-07 08:40 58.23567 17.16858 33803 ft 501 kts 29°
2026-05-07 08:40 58.26509 17.20421 33033 ft 501 kts 29°
2026-05-07 08:40 58.29439 17.23977 32070 ft 498 kts 29°
2026-05-07 08:41 58.32351 17.27519 30989 ft 496 kts 29°
2026-05-07 08:41 58.35247 17.31048 30062 ft 491 kts 29°
2026-05-07 08:41 58.38104 17.34537 29075 ft 485 kts 29°
2026-05-07 08:41 58.40918 17.37980 28179 ft 477 kts 29°
2026-05-07 08:42 58.43683 17.41370 27314 ft 469 kts 29°
2026-05-07 08:42 58.46406 17.44713 26463 ft 461 kts 29°
2026-05-07 08:42 58.49083 17.48006 25634 ft 455 kts 29°
2026-05-07 08:42 58.51721 17.51256 24836 ft 448 kts 29°
2026-05-07 08:43 58.54319 17.54463 24071 ft 441 kts 29°
2026-05-07 08:43 58.56871 17.57619 23306 ft 433 kts 29°
2026-05-07 08:43 58.59371 17.60718 22637 ft 422 kts 29°
2026-05-07 08:43 58.61800 17.63733 22021 ft 411 kts 29°
2026-05-07 08:44 58.64168 17.66677 21425 ft 400 kts 29°
2026-05-07 08:44 58.66471 17.69545 20847 ft 390 kts 29°
2026-05-07 08:44 58.68715 17.72344 20291 ft 381 kts 29°
2026-05-07 08:44 58.70913 17.75088 19735 ft 373 kts 30°
2026-05-07 08:45 58.73067 17.77780 19176 ft 366 kts 30°
2026-05-07 08:45 58.75196 17.80444 18635 ft 365 kts 30°
2026-05-07 08:45 58.77330 17.83117 18026 ft 367 kts 30°
2026-05-07 08:45 58.79444 17.85769 17457 ft 367 kts 30°
2026-05-07 08:46 58.81600 17.88359 16927 ft 363 kts 26°
2026-05-07 08:46 58.83817 17.90578 16681 ft 357 kts 23°
2026-05-07 08:46 58.86044 17.92688 16409 ft 356 kts 22°
2026-05-07 08:46 58.88271 17.94782 16104 ft 355 kts 22°
2026-05-07 08:47 58.90486 17.96867 15810 ft 354 kts 22°
2026-05-07 08:47 58.92692 17.98949 15503 ft 352 kts 22°
2026-05-07 08:47 58.94884 18.01022 15208 ft 350 kts 22°
2026-05-07 08:47 58.97067 18.03096 14911 ft 348 kts 22°
2026-05-07 08:48 58.98535 18.04489 14706 ft 347 kts 22°
2026-05-07 08:48 59.01396 18.07207 14313 ft 345 kts 22°
2026-05-07 08:48 59.02852 18.08593 14123 ft 344 kts 22°
2026-05-07 08:48 59.04996 18.10637 13818 ft 342 kts 22°
2026-05-07 08:49 59.07130 18.12675 13506 ft 341 kts 22°
2026-05-07 08:49 59.09285 18.14537 13148 ft 335 kts 14°
2026-05-07 08:49 59.11540 18.15392 12980 ft 329 kts
2026-05-07 08:49 59.13817 18.15743 12795 ft 328 kts 360°
2026-05-07 08:50 59.16093 18.15998 12513 ft 327 kts 359°
2026-05-07 08:50 59.18327 18.16239 12236 ft 325 kts 359°
2026-05-07 08:50 59.20581 18.16490 11967 ft 324 kts 360°
2026-05-07 08:50 59.22825 18.16745 11692 ft 323 kts 360°
2026-05-07 08:51 59.25062 18.17004 11404 ft 320 kts
2026-05-07 08:51 59.27244 18.17260 11238 ft 309 kts 360°
2026-05-07 08:51 59.29361 18.17510 10958 ft 301 kts 360°
2026-05-07 08:51 59.31420 18.17752 10687 ft 295 kts 360°
2026-05-07 08:52 59.33455 18.17994 10431 ft 289 kts
2026-05-07 08:52 59.35424 18.18226 10188 ft 287 kts
2026-05-07 08:52 59.37412 18.18460 9892 ft 286 kts
2026-05-07 08:52 59.39396 18.18693 9579 ft 284 kts
2026-05-07 08:53 59.41360 18.18926 9340 ft 282 kts
2026-05-07 08:53 59.43320 18.19160 9104 ft 281 kts
2026-05-07 08:53 59.45273 18.19391 8868 ft 280 kts
2026-05-07 08:53 59.47214 18.19622 8617 ft 279 kts
2026-05-07 08:54 59.49146 18.19850 8378 ft 278 kts
2026-05-07 08:54 59.51072 18.20078 8126 ft 276 kts
2026-05-07 08:54 59.52982 18.20366 7870 ft 275 kts
2026-05-07 08:54 59.54871 18.20943 7686 ft 275 kts
2026-05-07 08:55 59.56750 18.21612 7446 ft 273 kts
2026-05-07 08:55 59.58614 18.22293 7222 ft 272 kts
2026-05-07 08:55 59.60474 18.22973 7026 ft 270 kts
2026-05-07 08:55 59.62316 18.23638 7004 ft 270 kts
2026-05-07 08:56 59.64164 18.24316 6989 ft 270 kts
2026-05-07 08:56 59.66021 18.24952 6690 ft 270 kts
2026-05-07 08:56 59.67866 18.25525 6380 ft 267 kts
2026-05-07 08:56 59.69692 18.26075 6056 ft 265 kts
2026-05-07 08:57 59.71520 18.26615 5658 ft 265 kts
2026-05-07 08:57 59.73348 18.27153 5293 ft 265 kts
2026-05-07 08:57 59.75169 18.27685 5039 ft 263 kts
2026-05-07 08:57 59.76981 18.28212 5000 ft 264 kts
2026-05-07 08:58 59.78780 18.28737 5003 ft 265 kts
2026-05-07 08:58 59.80608 18.29272 5004 ft 266 kts
2026-05-07 08:58 59.82467 18.29523 4977 ft 264 kts 352°
2026-05-07 08:58 59.84175 18.28303 4625 ft 263 kts 324°
2026-05-07 08:59 59.85420 18.25706 4253 ft 260 kts 303°
2026-05-07 08:59 59.86345 18.22630 3875 ft 259 kts 298°
2026-05-07 08:59 59.87213 18.19503 3503 ft 259 kts 298°
2026-05-07 08:59 59.88076 18.16367 3189 ft 258 kts 297°
2026-05-07 09:00 59.88938 18.13249 2830 ft 257 kts 297°
2026-05-07 09:00 59.89581 18.09965 2543 ft 253 kts 276°
2026-05-07 09:00 59.89368 18.06560 2495 ft 249 kts 245°
2026-05-07 09:00 59.88432 18.03653 2509 ft 251 kts 231°
2026-05-07 09:01 59.87236 18.01128 2480 ft 248 kts 217°
2026-05-07 09:01 59.85797 17.99469 2506 ft 232 kts 201°
2026-05-07 09:01 59.84296 17.98691 2507 ft 221 kts 189°
2026-05-07 09:01 59.82801 17.98232 2479 ft 212 kts 189°
2026-05-07 09:02 59.81394 17.97754 2554 ft 198 kts 191°
2026-05-07 09:02 59.80101 17.97277 2671 ft 183 kts 191°
2026-05-07 09:02 59.78880 17.96825 2533 ft 173 kts 190°
2026-05-07 09:02 59.77737 17.96411 2430 ft 162 kts 190°
2026-05-07 09:03 59.76639 17.96012 2220 ft 160 kts 190°
2026-05-07 09:03 59.75547 17.95614 1990 ft 160 kts 190°
2026-05-07 09:03 59.74448 17.95212 1774 ft 162 kts 190°
2026-05-07 09:03 59.73339 17.94808 1525 ft 162 kts 190°
2026-05-07 09:04 59.72261 17.94417 1321 ft 153 kts 189°
2026-05-07 09:04 59.71214 17.94039 1093 ft 154 kts 189°
2026-05-07 09:04 59.70153 17.93650 866 ft 155 kts 189°
2026-05-07 09:04 59.69086 17.93264 656 ft 155 kts 189°
2026-05-07 09:05 59.68076 17.92898 450 ft 139 kts 191°
2026-05-07 09:05 59.67160 17.92564 289 ft 131 kts 191°
2026-05-07 09:05 59.66278 17.92251 167 ft 126 kts 191°
2026-05-07 09:05 59.65529 17.91969 147 ft 79 kts 190°
2026-05-07 09:06 59.65076 17.91802 145 ft 63 kts 190°
2026-05-07 09:06 59.64702 17.91711 148 ft 35 kts 173°
2026-05-07 09:06 59.64545 17.91784 143 ft 20 kts 162°
2026-05-07 09:06 59.64446 17.91935 141 ft 18 kts 131°
2026-05-07 09:07 59.64380 17.92144 141 ft 18 kts 118°
2026-05-07 09:07 59.64340 17.92363 141 ft 16 kts 69°
2026-05-07 09:07 59.64424 17.92505 141 ft 15 kts 48°
2026-05-07 09:07 59.64463 17.92626 141 ft 2 kts 57°
2026-05-07 09:08 59.64466 17.92635 141 ft 0 kts 57°